Terminal Aerodrome Forecast
Issued by NWS

Home | Current Version | Previous Version | Graphics & Text | Print | Product List | Glossary Off
Versions: 1 2 3 4 5 6 7 8 9 10 11 12 13 14 15 16 17 18 19 20 21 22 23 24 25 26 27 28 29 30 31 32 33 34 35 36 37 38 39 40

000
FTUS43 KDDC 210534
TAFGCK
TAF
KGCK 210534Z 2106/2206 04011KT P6SM OVC029
     FM210900 02008KT P6SM SCT035 OVC060
     FM211500 12008KT P6SM BKN100
     FM220300 14012KT P6SM -SHRA OVC025=

USA.gov is the U.S. government's official web portal to all federal, state and local government web resources and services.